Location: Earls Croome
(52.0667°N, 2.2000°W)
Time: 14:26:17
(UTC+00:00)

COSMOS 2455 - Pass Details

Date: 01 March 2020
Orbit: 901 x 909 km, 67.2° (Epoch: 07 April)

Event Time Altitude Azimuth Distance (km) Brightness Sun altitude
Exits shadow 02:12:56 20° 352° (N) 1,993 4.9 -39.8°
Maximum altitude 02:14:50 23° 18° (NNE) 1,847 4.9 -39.7°
Drops below altitude 10° 02:19:32 10° 69° (ENE) 2,599 5.8 -39.2°
Sets 02:22:37 0° 84° (E) 3,540 6.5 -38.9°
